Hourly Data Report for October 01, 2017

All times are specified in Local Standard Time (LST). Add 1 hour to adjust for Daylight Saving Time where and when it is observed.

YARMOUTH A
NOVA SCOTIA

43°49'37.000" N
66°05'17.000" W
42.90 m
8206495
71603
YQI

Download Data

Hourly Data (October 2017)
Hourly Data Report for October 1, 2017
Temp Definition
°C
Dew Point Temp Definition
°C
Rel Hum Definition
%
Wind Dir Definition
10's deg

Wind Spd Definition
km/h
Visibility Definition
km
Stn Press Definition
kPa
Hmdx Definition


Wind Chill Definition


Weather Definition


TIME
00:00 Legend Double Dagger 5.3 1.9 79 1 9 24.1 102.03     LegendNANA
01:00 Legend Double Dagger 4.8 2.4 84 36 9 24.1 102.02     LegendNANA
02:00 Legend Double Dagger 5.2 2.8 84 36 9 24.1 102.02     Clear
03:00 Legend Double Dagger 5.0 2.4 83 36 10 24.1 102.00     LegendNANA
04:00 Legend Double Dagger 5.1 2.4 83 36 13 24.1 101.98     LegendNANA
05:00 Legend Double Dagger 5.8 2.9 82 1 7 24.1 101.99     Clear
06:00 Legend Double Dagger 5.5 3.0 84 2 5 24.1 101.98     LegendNANA
07:00 Legend Double Dagger 3.4 1.7 89 12 5 24.1 102.02     LegendNANA
08:00 Legend Double Dagger 8.9 6.1 82 11 3 24.1 102.04     Clear
09:00 Legend Double Dagger 11.8 6.1 68 36 2 24.1 102.05     LegendNANA
10:00 Legend Double Dagger 13.5 5.9 60 28 13 24.1 102.02     LegendNANA
11:00 Legend Double Dagger 14.3 6.8 61 31 17 24.1 102.00     Clear
12:00 Legend Double Dagger 14.0 6.2 59 26 16 24.1 101.94     LegendNANA
13:00 Legend Double Dagger 14.2 8.2 67 28 17 24.1 101.87     LegendNANA
14:00 Legend Double Dagger 13.9 8.7 70 29 19 24.1 101.81     Mainly Clear
15:00 Legend Double Dagger 13.9 5.4 56 28 14 24.1 101.75     LegendNANA
16:00 Legend Double Dagger 13.5 4.7 55 28 19 24.1 101.71     LegendNANA
17:00 Legend Double Dagger 12.6 5.1 60 27 17 24.1 101.70     Clear
18:00 Legend Double Dagger 11.4 6.3 71 28 16 24.1 101.66     LegendNANA
19:00 Legend Double Dagger 11.2 6.6 73 27 14 24.1 101.64     LegendNANA
20:00 Legend Double Dagger 11.7 6.8 72 28 17 24.1 101.66     Clear
21:00 Legend Double Dagger 12.0 7.0 71 29 18 24.1 101.67     LegendNANA
22:00 Legend Double Dagger 12.2 9.0 81 31 21 24.1 101.66     LegendNANA
23:00 Legend Double Dagger 12.4 9.6 83 32 19 24.1 101.63     Clear

Notes on Data Quality.

Legend

  • E = Estimated
  • M = Missing
  • NA = Not Available
  • ‡ = Partner data that is not subject to review by the National Climate Archives
Date modified: